Weather History for Atwater, CA

Change the Weather History Date:

Wednesday, April 9, 2014

  Actual Average (KMCE) Record (KMCE)
Temperature  
Mean Temperature 70 °F 57 °F  
Max Temperature 86 °F 71 °F 86 °F (2014)
Min Temperature 55 °F 44 °F 32 °F (1999)
Degree Days  
Heating Degree Days 0    
Month to date heating degree days  
Since 1 July heating degree days  
Cooling Degree Days 6    
Month to date cooling degree days  
Year to date cooling degree days  
Growing Degree Days 20 (Base 50)    
Moisture  
Dew Point 57 °F    
Average Humidity 82    
Maximum Humidity 100    
Minimum Humidity 25    
Precipitation  
Precipitation 0.00 in 0.03 in 0.04 in (2009)
Month to date precipitation 0.32  
Year to date precipitation 7.34  
Since 1 July precipitation 11.16  
Snow  
Snow 0.00 in - - ()
Month to date snowfall  
Since 1 July snowfall  
Snow Depth -    
Sea Level Pressure  
Sea Level Pressure 30.00 in    
Wind  
Wind Speed 2 mph (North)    
Max Wind Speed 10 mph    
Max Gust Speed -    
Visibility 10 miles    
Events      
T = Trace of Precipitation, MM = Missing Value Source: NWS Daily Summary

Daily Weather History Graph

Daily Weather History Graph

Search for Another Location

Airport:

Trip Planner

Search our weather history database for the weather conditions in past years. The results will help you decide how hot, cold, wet, or windy it might be!

Date:

Astronomy

Apr. 09, 2014 Rise Set
Actual Time 6:35 AM PDT 7:32 PM PDT
Civil Twilight 6:09 AM PDT 7:58 PM PDT
Nautical Twilight 5:37 AM PDT 8:30 PM PDT
Astronomical Twilight 5:05 AM PDT 9:03 PM PDT
Moon 2:31 PM PDT (4/9) 3:21 AM PDT (4/9)
Length of Visible Light 13h 49m
Length of Day
12h 56m
Waxing Gibbous, 72% of the Moon is Illuminated
Apr 9
Waxing Gibbous
Apr 15
Full
Apr 22
Last Quarter
Apr 28
New
May 6
First Quarter

Hourly Weather History & Observations

Time (PDT) Temp. Dew Point Humidity Pressure Visibility Wind Dir Wind Speed Gust Speed Precip Events Conditions
12:15 AM 62.6 °F 62.6 °F 100% 30.02 in 10.0 mi Calm Calm - N/A   Clear
12:35 AM 62.6 °F 62.6 °F 100% 30.02 in 10.0 mi Calm Calm - N/A   Clear
12:55 AM 62.6 °F 62.6 °F 100% 30.02 in 10.0 mi Calm Calm - N/A   Clear
1:15 AM 62.6 °F 62.6 °F 100% 30.02 in 10.0 mi NNW 6.9 mph - N/A   Clear
1:35 AM 60.8 °F 60.8 °F 100% 30.02 in 9.0 mi North 5.8 mph - N/A   Clear
1:55 AM 59.0 °F 59.0 °F 100% 30.02 in 10.0 mi North - - N/A   Clear
2:15 AM 59.0 °F 59.0 °F 100% 30.01 in 9.0 mi Calm Calm - N/A   Clear
2:35 AM 60.8 °F 60.8 °F 100% 30.01 in 10.0 mi Calm Calm - N/A   Clear
2:55 AM 57.2 °F 57.2 °F 100% 30.01 in 10.0 mi Calm Calm - N/A   Clear
3:15 AM 57.2 °F 57.2 °F 100% 30.01 in 10.0 mi Calm Calm - N/A   Clear
3:35 AM 57.2 °F 57.2 °F 100% 30.00 in 10.0 mi Calm Calm - N/A   Clear
3:55 AM 57.2 °F 57.2 °F 100% 30.00 in 10.0 mi Calm Calm - N/A   Clear
4:15 AM 57.2 °F 57.2 °F 100% 30.01 in 10.0 mi Calm Calm - N/A   Clear
4:35 AM 55.4 °F 55.4 °F 100% 30.01 in 10.0 mi Calm Calm - N/A   Clear
4:55 AM 55.4 °F 55.4 °F 100% 30.01 in 10.0 mi Calm Calm - N/A   Clear
5:15 AM 55.4 °F 55.4 °F 100% 30.01 in 10.0 mi Calm Calm - N/A   Clear
5:35 AM 55.4 °F 55.4 °F 100% 30.01 in 10.0 mi Calm Calm - N/A   Clear
5:55 AM 55.4 °F 55.4 °F 100% 30.01 in 10.0 mi Calm Calm - N/A   Clear
6:45 AM 55.4 °F 55.4 °F 100% 30.03 in 10.0 mi Calm Calm - N/A   Partly Cloudy
7:45 AM 59.0 °F 59.0 °F 100% 30.04 in 10.0 mi Calm Calm - N/A   Partly Cloudy
8:45 AM 64.4 °F 60.8 °F 88% 30.05 in 10.0 mi Calm Calm - N/A   Partly Cloudy
9:45 AM 68.0 °F 60.8 °F 78% 30.05 in 10.0 mi Calm Calm - N/A   Partly Cloudy
10:45 AM 75.2 °F 51.8 °F 44% 30.05 in 10.0 mi Calm Calm - N/A   Clear
11:45 AM 78.8 °F 48.2 °F 34% 30.04 in 10.0 mi North 5.8 mph - N/A   Clear
12:45 PM 82.4 °F 51.8 °F 35% 30.02 in 10.0 mi North 3.5 mph - N/A   Clear
1:45 PM 84.2 °F 51.8 °F 33% 30.00 in 10.0 mi North 6.9 mph - N/A   Clear
2:45 PM 86.0 °F 51.8 °F 31% 29.98 in 10.0 mi North 3.5 mph - N/A   Clear
3:45 PM 86.0 °F 46.4 °F 25% 29.96 in 10.0 mi Calm Calm - N/A   Clear
5:45 PM 84.2 °F 48.2 °F 29% 29.94 in 10.0 mi North 6.9 mph - N/A   Clear
7:45 PM 71.6 °F 55.4 °F 57% 29.94 in 10.0 mi North 6.9 mph - N/A   Clear
8:15 PM 69.8 °F 55.4 °F 60% 29.95 in 10.0 mi NNE 6.9 mph - N/A   Clear
8:35 PM 69.8 °F 55.4 °F 60% 29.96 in 10.0 mi NE 6.9 mph - N/A   Clear
8:45 PM 68.0 °F 55.4 °F 64% 29.96 in 10.0 mi North 10.4 mph - N/A   Clear
8:55 PM 66.2 °F 55.4 °F 68% 29.96 in 10.0 mi NNE 6.9 mph - N/A   Clear
9:15 PM 66.2 °F 55.4 °F 68% 29.97 in 10.0 mi NNE 5.8 mph - N/A   Clear
9:35 PM 62.6 °F 55.4 °F 77% 29.97 in 10.0 mi NNE 5.8 mph - N/A   Clear
9:55 PM 62.6 °F 57.2 °F 82% 29.98 in 10.0 mi Calm Calm - N/A   Clear
10:15 PM 60.8 °F 57.2 °F 88% 29.98 in 10.0 mi Calm Calm - N/A   Clear
10:35 PM 59.0 °F 59.0 °F 100% 29.98 in 10.0 mi Calm Calm - N/A   Clear
10:55 PM 59.0 °F 59.0 °F 100% 29.98 in 10.0 mi Calm Calm - N/A   Clear
11:15 PM 59.0 °F 59.0 °F 100% 29.98 in 10.0 mi Calm Calm - N/A   Clear
11:35 PM 59.0 °F 59.0 °F 100% 29.98 in 10.0 mi Calm Calm - N/A   Clear
11:55 PM 59.0 °F 59.0 °F 100% 29.98 in 10.0 mi North - - N/A   Clear